SKW374 KDTW-CYHZ

Flight info

Callsign SKW374
Flight time N/A
Altitude 33000
Route ZETTR4 ZETTR DCT DERLO Q822 HOZIR DCT BRUIN DCT ZYRUP DCT BGR DCT EBONY FUNDY5
Aircraft E75L/M-SDE3GILORVW/S

Departure

Time 2026-05-04 22:51
Airport Detroit Metropolitan Wayne County Airport (KDTW)

Arrival

Time N/A
Airport Halifax / Stanfield International Airport (CYHZ)
Time Latitude Longitude Altitude Speed Heading
2026-05-04 22:31 42.20875 -83.35836 647 ft 0 kts 120°
2026-05-04 22:40 42.20876 -83.35838 647 ft 1 kts 120°
2026-05-04 22:40 42.20882 -83.35859 647 ft 3 kts 104°
2026-05-04 22:41 42.20889 -83.35882 651 ft 2 kts 121°
2026-05-04 22:41 42.20897 -83.35906 651 ft 3 kts 101°
2026-05-04 22:41 42.20897 -83.35932 650 ft 3 kts 69°
2026-05-04 22:41 42.20886 -83.35954 649 ft 3 kts 43°
2026-05-04 22:42 42.20870 -83.35970 648 ft 3 kts 30°
2026-05-04 22:42 42.20853 -83.35982 649 ft 2 kts 28°
2026-05-04 22:42 42.20843 -83.35990 647 ft 3 kts 29°
2026-05-04 22:42 42.20832 -83.35998 647 ft 0 kts 29°
2026-05-04 22:44 42.20842 -83.35990 647 ft 5 kts 30°
2026-05-04 22:45 42.20889 -83.35955 648 ft 11 kts 28°
2026-05-04 22:45 42.21097 -83.35803 647 ft 23 kts 28°
2026-05-04 22:45 42.21141 -83.35770 649 ft 5 kts 32°
2026-05-04 22:46 42.21193 -83.35728 647 ft 14 kts 31°
2026-05-04 22:46 42.21309 -83.35646 647 ft 24 kts 29°
2026-05-04 22:46 42.21462 -83.35535 647 ft 21 kts 28°
2026-05-04 22:46 42.21548 -83.35361 647 ft 29 kts 95°
2026-05-04 22:47 42.21559 -83.35096 647 ft 22 kts 72°
2026-05-04 22:47 42.21608 -83.35011 647 ft 4 kts 38°
2026-05-04 22:47 42.21637 -83.34978 647 ft 10 kts 40°
2026-05-04 22:47 42.21723 -83.34869 649 ft 23 kts 44°
2026-05-04 22:48 42.21836 -83.34716 648 ft 16 kts 61°
2026-05-04 22:48 42.21839 -83.34551 650 ft 24 kts 76°
2026-05-04 22:48 42.22000 -83.34393 647 ft 36 kts 28°
2026-05-04 22:48 42.22255 -83.34208 648 ft 47 kts 27°
2026-05-04 22:49 42.22490 -83.34035 648 ft 26 kts 27°
2026-05-04 22:49 42.22660 -83.33908 648 ft 30 kts 28°
2026-05-04 22:49 42.22778 -83.33821 648 ft 13 kts 30°
2026-05-04 22:49 42.22850 -83.33753 649 ft 9 kts 64°
2026-05-04 22:50 42.22843 -83.33699 648 ft 8 kts 118°
2026-05-04 22:50 42.22779 -83.33670 648 ft 13 kts 190°
2026-05-04 22:50 42.22696 -83.33718 649 ft 4 kts 208°
2026-05-04 22:50 42.22504 -83.33859 650 ft 59 kts 208°
2026-05-04 22:51 42.21991 -83.34233 648 ft 107 kts 208°
2026-05-04 22:51 42.21211 -83.34791 718 ft 140 kts 207°
2026-05-04 22:51 42.20297 -83.35245 1207 ft 145 kts 187°
2026-05-04 22:51 42.19313 -83.35051 1389 ft 144 kts 175°
2026-05-04 22:52 42.18304 -83.34703 1226 ft 156 kts 172°
2026-05-04 22:52 42.17148 -83.34374 1247 ft 181 kts 175°
2026-05-04 22:52 42.15942 -83.34140 2214 ft 174 kts 184°
2026-05-04 22:52 42.14673 -83.34024 2735 ft 195 kts 184°
2026-05-04 22:53 42.13253 -83.33875 3306 ft 215 kts 182°
2026-05-04 22:53 42.11707 -83.33676 3887 ft 231 kts 180°
2026-05-04 22:53 42.10118 -83.32889 4450 ft 263 kts 150°
2026-05-04 22:53 42.08907 -83.30903 5066 ft 289 kts 119°
2026-05-04 22:54 42.08498 -83.28212 5827 ft 303 kts 90°
2026-05-04 22:54 42.08943 -83.25431 6571 ft 307 kts 72°
2026-05-04 22:54 42.09672 -83.22709 7248 ft 311 kts 69°
2026-05-04 22:54 42.10442 -83.20014 7902 ft 314 kts 68°
2026-05-04 22:55 42.11377 -83.17358 8518 ft 315 kts 53°
2026-05-04 22:55 42.12769 -83.15078 9127 ft 315 kts 42°
2026-05-04 22:55 42.14382 -83.13079 9695 ft 316 kts 35°
2026-05-04 22:55 42.16105 -83.11230 10225 ft 317 kts 32°
2026-05-04 22:56 42.17949 -83.09618 10774 ft 316 kts 24°
2026-05-04 22:56 42.19210 -83.08629 11168 ft 317 kts 24°
2026-05-04 22:56 42.21794 -83.06660 11955 ft 321 kts 23°
2026-05-04 22:56 42.22966 -83.05771 12302 ft 323 kts 23°
2026-05-04 22:57 42.25636 -83.03910 13093 ft 322 kts 16°
2026-05-04 22:57 42.27014 -83.03157 13501 ft 322 kts 13°
2026-05-04 22:57 42.29876 -83.01806 13868 ft 339 kts 11°
2026-05-04 22:57 42.32163 -83.00867 14212 ft 344 kts
2026-05-04 22:58 42.34504 -83.00142 14751 ft 346 kts
2026-05-04 22:58 42.36866 -82.99446 15313 ft 349 kts
2026-05-04 22:58 42.39246 -82.98760 15878 ft 352 kts
2026-05-04 22:58 42.40840 -82.98294 16232 ft 355 kts
2026-05-04 22:59 42.43265 -82.97606 16797 ft 358 kts
2026-05-04 22:59 42.45714 -82.96900 17367 ft 361 kts
2026-05-04 22:59 42.48050 -82.96224 17919 ft 364 kts
2026-05-04 22:59 42.50534 -82.95503 18439 ft 367 kts
2026-05-04 23:00 42.53855 -82.94541 19106 ft 371 kts
2026-05-04 23:00 42.55563 -82.94045 19489 ft 373 kts
2026-05-04 23:00 42.58105 -82.93306 20057 ft 375 kts
2026-05-04 23:00 42.60670 -82.92562 20608 ft 379 kts
2026-05-04 23:01 42.63222 -82.91819 21142 ft 381 kts
2026-05-04 23:01 42.65826 -82.91061 21660 ft 384 kts
2026-05-04 23:01 42.68450 -82.90297 22155 ft 387 kts
2026-05-04 23:01 42.71096 -82.89526 22644 ft 390 kts
2026-05-04 23:02 42.73759 -82.88749 23146 ft 393 kts
2026-05-04 23:02 42.76422 -82.87812 23564 ft 403 kts 14°
2026-05-04 23:02 42.78974 -82.86123 24036 ft 412 kts 24°
2026-05-04 23:02 42.81415 -82.84030 24514 ft 418 kts 29°
2026-05-04 23:03 42.83686 -82.81483 24976 ft 425 kts 36°
2026-05-04 23:03 42.85914 -82.78819 25423 ft 429 kts 37°
2026-05-04 23:03 42.88105 -82.76132 25860 ft 430 kts 37°
2026-05-04 23:03 42.90288 -82.73308 26267 ft 436 kts 43°
2026-05-04 23:04 42.92163 -82.70026 26663 ft 443 kts 53°
2026-05-04 23:04 42.93734 -82.66385 27029 ft 448 kts 62°
2026-05-04 23:04 42.94988 -82.62465 27403 ft 451 kts 64°
2026-05-04 23:04 42.96246 -82.58540 27768 ft 454 kts 64°
2026-05-04 23:05 42.97497 -82.54568 28132 ft 456 kts 64°
2026-05-04 23:05 42.98750 -82.50580 28502 ft 459 kts 64°
2026-05-04 23:05 42.99995 -82.46616 28825 ft 462 kts 64°
2026-05-04 23:05 43.01244 -82.42559 29183 ft 465 kts 67°
2026-05-04 23:06 43.02149 -82.38303 29561 ft 468 kts 77°
2026-05-04 23:06 43.02688 -82.33910 29849 ft 471 kts 84°
2026-05-04 23:06 43.03071 -82.24852 30238 ft 479 kts 87°
2026-05-04 23:07 43.03233 -82.20309 30552 ft 478 kts 87°
2026-05-04 23:07 43.03392 -82.15778 30864 ft 478 kts 87°
2026-05-04 23:07 43.03548 -82.11308 31158 ft 478 kts 87°
2026-05-04 23:07 43.03704 -82.06775 31463 ft 477 kts 87°
2026-05-04 23:08 43.03859 -82.02246 31767 ft 477 kts 87°
2026-05-04 23:08 43.04011 -81.97718 32067 ft 476 kts 87°
2026-05-04 23:08 43.04162 -81.93203 32366 ft 476 kts 87°
2026-05-04 23:08 43.04312 -81.88688 32662 ft 476 kts 87°
2026-05-04 23:09 43.04607 -81.79572 33017 ft 481 kts 87°
2026-05-04 23:09 43.04753 -81.75010 33304 ft 480 kts 87°
2026-05-04 23:09 43.04894 -81.70514 33576 ft 480 kts 87°
2026-05-04 23:10 43.05036 -81.65956 33814 ft 479 kts 87°
2026-05-04 23:10 43.05175 -81.61408 34037 ft 480 kts 86°
2026-05-04 23:10 43.05313 -81.56852 34274 ft 479 kts 86°
2026-05-04 23:10 43.05449 -81.52308 34496 ft 474 kts 86°
2026-05-04 23:11 43.05578 -81.47900 34557 ft 455 kts 86°
2026-05-04 23:11 43.05705 -81.43589 34612 ft 457 kts 87°
2026-05-04 23:11 43.05954 -81.34860 34678 ft 468 kts 87°
2026-05-04 23:12 43.06203 -81.25858 34680 ft 479 kts 86°
2026-05-04 23:12 43.06449 -81.16787 34659 ft 475 kts 86°
2026-05-04 23:13 43.06678 -81.07758 34662 ft 475 kts 88°
2026-05-04 23:13 43.06916 -80.98718 34671 ft 476 kts 87°
2026-05-04 23:14 43.07134 -80.89743 34676 ft 476 kts 87°
2026-05-04 23:14 43.07347 -80.80717 34666 ft 475 kts 87°
2026-05-04 23:15 43.07553 -80.71678 34672 ft 475 kts 87°
2026-05-04 23:15 43.07752 -80.62642 34672 ft 475 kts 87°
2026-05-04 23:16 43.07943 -80.53668 34672 ft 475 kts 87°
2026-05-04 23:16 43.08126 -80.44655 34683 ft 474 kts 87°
2026-05-04 23:17 43.08305 -80.35644 34671 ft 474 kts 87°
2026-05-04 23:17 43.08476 -80.26637 34681 ft 474 kts 87°
2026-05-04 23:18 43.08640 -80.17622 34678 ft 474 kts 87°
2026-05-04 23:18 43.08795 -80.08692 34682 ft 472 kts 87°
2026-05-04 23:19 43.08945 -79.99702 34686 ft 473 kts 87°
2026-05-04 23:19 43.09086 -79.90712 34684 ft 473 kts 87°
2026-05-04 23:20 43.09222 -79.81721 34682 ft 473 kts 87°
2026-05-04 23:20 43.09349 -79.72795 34682 ft 472 kts 87°
2026-05-04 23:21 43.09470 -79.63797 34677 ft 473 kts 87°
2026-05-04 23:21 43.09583 -79.54811 34680 ft 473 kts 87°
2026-05-04 23:22 43.09691 -79.45826 34683 ft 472 kts 87°
2026-05-04 23:22 43.09789 -79.36894 34680 ft 473 kts 87°
2026-05-04 23:23 43.09883 -79.27894 34687 ft 473 kts 87°
2026-05-04 23:23 43.09968 -79.18899 34680 ft 473 kts 87°
2026-05-04 23:24 43.10048 -79.09901 34687 ft 473 kts 87°
2026-05-04 23:24 43.10755 -79.01008 34721 ft 470 kts 75°
2026-05-04 23:25 43.12396 -78.92429 34698 ft 468 kts 70°
2026-05-04 23:25 43.14158 -78.83892 34707 ft 468 kts 70°
2026-05-04 23:26 43.15924 -78.75317 34696 ft 468 kts 71°
2026-05-04 23:26 43.17682 -78.66741 34700 ft 466 kts 71°
2026-05-04 23:27 43.19425 -78.58213 34714 ft 465 kts 71°
2026-05-04 23:27 43.21161 -78.49671 34697 ft 465 kts 71°
2026-05-04 23:28 43.22881 -78.41179 34709 ft 465 kts 71°
2026-05-04 23:28 43.24607 -78.32610 34709 ft 468 kts 71°
2026-05-04 23:29 43.26332 -78.24020 34701 ft 467 kts 71°
2026-05-04 23:29 43.28051 -78.15421 34712 ft 467 kts 71°
2026-05-04 23:30 43.29762 -78.06819 34710 ft 467 kts 71°
2026-05-04 23:30 43.31468 -77.98210 34699 ft 467 kts 71°
2026-05-04 23:31 43.33151 -77.89678 34704 ft 465 kts 71°
2026-05-04 23:31 43.34836 -77.81099 34706 ft 466 kts 71°
2026-05-04 23:32 43.36516 -77.72510 34707 ft 466 kts 71°
2026-05-04 23:32 43.38197 -77.63875 34703 ft 467 kts 71°
2026-05-04 23:33 43.39854 -77.55323 34708 ft 464 kts 71°
2026-05-04 23:33 43.41513 -77.46732 34707 ft 465 kts 71°
2026-05-04 23:34 43.43165 -77.38131 34727 ft 465 kts 71°
2026-05-04 23:34 43.44812 -77.29521 34728 ft 465 kts 71°
2026-05-04 23:35 43.46451 -77.20911 34723 ft 464 kts 71°
2026-05-04 23:35 43.48071 -77.12371 34718 ft 464 kts 71°
2026-05-04 23:36 43.49694 -77.03761 34729 ft 465 kts 71°
2026-05-04 23:36 43.51317 -76.95137 34713 ft 465 kts 71°
2026-05-04 23:37 43.52928 -76.86513 34725 ft 465 kts 71°
2026-05-04 23:37 43.54524 -76.77952 34724 ft 464 kts 71°
2026-05-04 23:38 43.56123 -76.69317 34720 ft 464 kts 71°
2026-05-04 23:38 43.57713 -76.60699 34726 ft 464 kts 71°
2026-05-04 23:39 43.59299 -76.52064 34719 ft 464 kts 71°
2026-05-04 23:39 43.60875 -76.43443 34722 ft 463 kts 71°
2026-05-04 23:40 43.62448 -76.34794 34716 ft 465 kts 71°
2026-05-04 23:40 43.64005 -76.26199 34724 ft 465 kts 71°
2026-05-04 23:41 43.65565 -76.17544 34707 ft 465 kts 71°
2026-05-04 23:41 43.67270 -76.08969 34719 ft 461 kts 67°
2026-05-04 23:42 43.69227 -76.00552 34707 ft 460 kts 67°
2026-05-04 23:42 43.71206 -75.92123 34728 ft 461 kts 67°
2026-05-04 23:43 43.73177 -75.83694 34729 ft 461 kts 67°
2026-05-04 23:43 43.75130 -75.75305 34706 ft 461 kts 67°
2026-05-04 23:44 43.77087 -75.66870 34719 ft 461 kts 67°
2026-05-04 23:44 43.79039 -75.58419 34702 ft 461 kts 67°
2026-05-04 23:45 43.80984 -75.49966 34715 ft 461 kts 67°
2026-05-04 23:45 43.82922 -75.41510 34717 ft 460 kts 67°
2026-05-04 23:46 43.84846 -75.33087 34728 ft 458 kts 67°
2026-05-04 23:46 43.86750 -75.24714 34722 ft 459 kts 67°
2026-05-04 23:47 43.88660 -75.16285 34728 ft 459 kts 67°
2026-05-04 23:47 43.90566 -75.07842 34731 ft 459 kts 68°
2026-05-04 23:48 43.92456 -74.99434 34743 ft 455 kts 67°
2026-05-04 23:48 43.94337 -74.91034 34738 ft 456 kts 68°
2026-05-04 23:49 43.96213 -74.82623 34740 ft 456 kts 68°
2026-05-04 23:49 43.98084 -74.74201 34758 ft 458 kts 68°
2026-05-04 23:50 43.99942 -74.65807 34738 ft 457 kts 68°
2026-05-04 23:50 44.01805 -74.57358 34756 ft 458 kts 68°
2026-05-04 23:51 44.03662 -74.48901 34742 ft 458 kts 68°
2026-05-04 23:51 44.05513 -74.40433 34742 ft 457 kts 68°
2026-05-04 23:52 44.07343 -74.32038 34757 ft 458 kts 68°
2026-05-04 23:52 44.09183 -74.23552 34746 ft 456 kts 68°
2026-05-04 23:53 44.11013 -74.15091 34760 ft 457 kts 68°
2026-05-04 23:53 44.12833 -74.06629 34752 ft 457 kts 68°
2026-05-04 23:54 44.14653 -73.98140 34795 ft 457 kts 68°
2026-05-04 23:54 44.16462 -73.89663 34783 ft 457 kts 68°
2026-05-04 23:55 44.18255 -73.81229 34783 ft 457 kts 68°
2026-05-04 23:56 44.20952 -73.68478 34775 ft 457 kts 68°
2026-05-04 23:56 44.22746 -73.59955 34739 ft 458 kts 68°
2026-05-04 23:57 44.24535 -73.51416 34743 ft 459 kts 68°
2026-05-04 23:57 44.26317 -73.42876 34715 ft 458 kts 68°
2026-05-04 23:58 44.28080 -73.34393 34729 ft 458 kts 68°
2026-05-04 23:58 44.29848 -73.25855 34724 ft 458 kts 68°
2026-05-04 23:59 44.31612 -73.17293 34721 ft 458 kts 68°
2026-05-04 23:59 44.33369 -73.08733 34731 ft 459 kts 68°
2026-05-05 00:00 44.35119 -73.00166 34752 ft 459 kts 68°
2026-05-05 00:00 44.36862 -72.91589 34753 ft 456 kts 68°
2026-05-05 00:01 44.38580 -72.83126 34724 ft 456 kts 68°
2026-05-05 00:01 44.40297 -72.74587 34765 ft 456 kts 68°
2026-05-05 00:02 44.41625 -72.65843 34773 ft 461 kts 73°
2026-05-05 00:02 44.42772 -72.57041 34752 ft 460 kts 74°
2026-05-05 00:03 44.43911 -72.48178 34787 ft 466 kts 74°
2026-05-05 00:03 44.45037 -72.39349 34760 ft 463 kts 73°
2026-05-05 00:04 44.46162 -72.30483 34767 ft 463 kts 74°
2026-05-05 00:04 44.47283 -72.21597 34740 ft 463 kts 74°
2026-05-05 00:05 44.48397 -72.12714 34788 ft 464 kts 74°
2026-05-05 00:05 44.49501 -72.03827 34785 ft 462 kts 74°
2026-05-05 00:06 44.50600 -71.94962 34798 ft 463 kts 74°
2026-05-05 00:06 44.51692 -71.86073 34795 ft 464 kts 74°
2026-05-05 00:07 44.52779 -71.77159 34776 ft 463 kts 74°
2026-05-05 00:07 44.53853 -71.68304 34779 ft 464 kts 74°
2026-05-05 00:08 44.54923 -71.59403 34777 ft 461 kts 74°
2026-05-05 00:08 44.55987 -71.50530 34778 ft 462 kts 74°
2026-05-05 00:09 44.57041 -71.41650 34773 ft 462 kts 74°
2026-05-05 00:09 44.58089 -71.32767 34796 ft 462 kts 74°
2026-05-05 00:10 44.59131 -71.23870 34772 ft 462 kts 74°
2026-05-05 00:10 44.60157 -71.15052 34798 ft 462 kts 74°
2026-05-05 00:11 44.61184 -71.06161 34776 ft 462 kts 74°
2026-05-05 00:11 44.62205 -70.97271 34792 ft 462 kts 74°
2026-05-05 00:12 44.63216 -70.88377 34780 ft 461 kts 74°
2026-05-05 00:12 44.64218 -70.79522 34803 ft 462 kts 74°
2026-05-05 00:13 44.65216 -70.70636 34801 ft 461 kts 74°
2026-05-05 00:13 44.66208 -70.61736 34815 ft 461 kts 75°
2026-05-05 00:14 44.67191 -70.52835 34802 ft 461 kts 75°
2026-05-05 00:14 44.68170 -70.43927 34806 ft 462 kts 75°
2026-05-05 00:15 44.69134 -70.35076 34808 ft 462 kts 75°
2026-05-05 00:15 44.70099 -70.26163 34805 ft 462 kts 75°
2026-05-05 00:16 44.71058 -70.17228 34795 ft 462 kts 75°
2026-05-05 00:16 44.72008 -70.08312 34801 ft 462 kts 75°
2026-05-05 00:17 44.72952 -69.99389 34798 ft 462 kts 75°
2026-05-05 00:17 44.73891 -69.90437 34804 ft 462 kts 75°
2026-05-05 00:18 44.74822 -69.81497 34794 ft 462 kts 75°
2026-05-05 00:18 44.75749 -69.72531 34796 ft 463 kts 75°
2026-05-05 00:19 44.76662 -69.63625 34798 ft 463 kts 75°
2026-05-05 00:19 44.77574 -69.54652 34802 ft 464 kts 75°
2026-05-05 00:20 44.78480 -69.45666 34809 ft 464 kts 75°
2026-05-05 00:20 44.79381 -69.36657 34809 ft 465 kts 76°
2026-05-05 00:21 44.80276 -69.27636 34812 ft 465 kts 76°
2026-05-05 00:21 44.81164 -69.18623 34810 ft 465 kts 76°
2026-05-05 00:22 44.82038 -69.09653 34822 ft 465 kts 76°
2026-05-05 00:22 44.82915 -69.00626 34820 ft 467 kts 76°
2026-05-05 00:23 44.83789 -68.91549 34820 ft 467 kts 76°
2026-05-05 00:23 44.84389 -68.82399 34817 ft 470 kts 80°
2026-05-05 00:24 44.84785 -68.73191 34816 ft 471 kts 81°
2026-05-05 00:24 44.85161 -68.63979 34819 ft 471 kts 81°
2026-05-05 00:25 44.85533 -68.54753 34813 ft 472 kts 81°
2026-05-05 00:25 44.85894 -68.45584 34830 ft 472 kts 81°
2026-05-05 00:26 44.86252 -68.36338 34816 ft 472 kts 81°
2026-05-05 00:26 44.86605 -68.27100 34853 ft 474 kts 82°
2026-05-05 00:27 44.86947 -68.17808 34822 ft 474 kts 82°
2026-05-05 00:27 44.87276 -68.08667 34798 ft 458 kts 82°
2026-05-05 00:28 44.87600 -67.99708 34822 ft 464 kts 82°
2026-05-05 00:28 44.87917 -67.90500 34840 ft 477 kts 83°
2026-05-05 00:29 44.88233 -67.81144 34812 ft 475 kts 82°
2026-05-05 00:29 44.88545 -67.71902 34822 ft 477 kts 83°
2026-05-05 00:30 44.88842 -67.62551 34815 ft 477 kts 83°
2026-05-05 00:30 44.89137 -67.53205 34821 ft 477 kts 83°
2026-05-05 00:31 44.89423 -67.43864 34824 ft 477 kts 83°
2026-05-05 00:31 44.89703 -67.34489 34837 ft 479 kts 84°
2026-05-05 00:32 44.89930 -67.26679 34829 ft 480 kts 84°
2026-05-05 00:32 44.90227 -67.15921 34842 ft 480 kts 87°
2026-05-05 00:32 44.90239 -67.11213 34229 ft 481 kts 86°
2026-05-05 00:33 44.90240 -67.06492 33441 ft 483 kts 86°
2026-05-05 00:33 44.90235 -67.01753 32611 ft 483 kts 85°
2026-05-05 00:33 44.90227 -66.97002 31779 ft 484 kts 85°
2026-05-05 00:33 44.90217 -66.92258 30949 ft 485 kts 84°
2026-05-05 00:34 44.90204 -66.87505 29936 ft 483 kts 83°
2026-05-05 00:34 44.90198 -66.82742 28296 ft 488 kts 83°
2026-05-05 00:34 44.90182 -66.78031 27094 ft 485 kts 84°
2026-05-05 00:34 44.90165 -66.73311 26081 ft 479 kts 84°
2026-05-05 00:35 44.90142 -66.68686 25299 ft 464 kts 85°
2026-05-05 00:35 44.90125 -66.64201 24420 ft 452 kts 85°
2026-05-05 00:35 44.90105 -66.59823 23597 ft 441 kts 85°
2026-05-05 00:35 44.90083 -66.55545 22694 ft 431 kts 85°
2026-05-05 00:36 44.90060 -66.51362 21799 ft 422 kts 86°
2026-05-05 00:36 44.90045 -66.48640 21199 ft 418 kts 86°
2026-05-05 00:36 44.90020 -66.44557 20255 ft 414 kts 86°
2026-05-05 00:37 44.89964 -66.36098 18384 ft 407 kts 88°
2026-05-05 00:37 44.89933 -66.32085 17488 ft 401 kts 88°
2026-05-05 00:37 44.89905 -66.28234 16623 ft 395 kts 88°
2026-05-05 00:37 44.89876 -66.24386 15776 ft 390 kts 88°
2026-05-05 00:38 44.89846 -66.20594 14958 ft 384 kts 89°
2026-05-05 00:38 44.89814 -66.16856 14181 ft 379 kts 89°
2026-05-05 00:38 44.89780 -66.13168 13380 ft 374 kts 89°
2026-05-05 00:38 44.89747 -66.09527 12556 ft 368 kts 89°
2026-05-05 00:39 44.89713 -66.05945 11755 ft 363 kts 89°
2026-05-05 00:39 44.89679 -66.02412 10987 ft 357 kts 90°
2026-05-05 00:39 44.89644 -65.98937 10241 ft 352 kts 90°
2026-05-05 00:39 44.89608 -65.95539 10005 ft 345 kts 90°
2026-05-05 00:40 44.89572 -65.92139 9925 ft 348 kts 90°
2026-05-05 00:40 44.89535 -65.88726 9876 ft 348 kts 90°
2026-05-05 00:40 44.89496 -65.85312 9853 ft 348 kts 90°
2026-05-05 00:40 44.89457 -65.81900 9847 ft 348 kts 90°
2026-05-05 00:41 44.89417 -65.78534 9840 ft 348 kts 90°
2026-05-05 00:41 44.89375 -65.75126 9845 ft 348 kts 90°
2026-05-05 00:41 44.89334 -65.71722 9848 ft 347 kts 90°
2026-05-05 00:41 44.89290 -65.68337 9839 ft 344 kts 90°
2026-05-05 00:42 44.89246 -65.64981 9836 ft 343 kts 90°
2026-05-05 00:42 44.89200 -65.61590 9852 ft 348 kts 90°
2026-05-05 00:42 44.89154 -65.58151 9845 ft 351 kts 90°
2026-05-05 00:42 44.89108 -65.54723 9837 ft 350 kts 90°
2026-05-05 00:43 44.89058 -65.51309 9830 ft 347 kts 90°
2026-05-05 00:43 44.89009 -65.47909 9864 ft 347 kts 90°
2026-05-05 00:43 44.88959 -65.44484 9847 ft 350 kts 90°
2026-05-05 00:43 44.88906 -65.41060 9832 ft 349 kts 90°
2026-05-05 00:44 44.88853 -65.37682 9835 ft 349 kts 90°
2026-05-05 00:44 44.88800 -65.34262 9843 ft 349 kts 90°
2026-05-05 00:44 44.88744 -65.30834 9840 ft 349 kts 90°
2026-05-05 00:44 44.88688 -65.27409 9826 ft 349 kts 90°
2026-05-05 00:45 44.88633 -65.23990 9808 ft 349 kts 91°
2026-05-05 00:45 44.88573 -65.20568 9828 ft 349 kts 91°
2026-05-05 00:45 44.88514 -65.17142 9825 ft 350 kts 91°
2026-05-05 00:45 44.88454 -65.13722 9812 ft 349 kts 91°
2026-05-05 00:46 44.88392 -65.10304 9825 ft 349 kts 91°
2026-05-05 00:46 44.88331 -65.06876 9823 ft 350 kts 91°
2026-05-05 00:46 44.88268 -65.03498 9823 ft 350 kts 91°
2026-05-05 00:46 44.88204 -65.00064 9823 ft 350 kts 91°
2026-05-05 00:47 44.88138 -64.96634 9813 ft 350 kts 91°
2026-05-05 00:47 44.88073 -64.93213 9814 ft 349 kts 91°
2026-05-05 00:47 44.88004 -64.89795 9816 ft 349 kts 91°
2026-05-05 00:47 44.87935 -64.86367 9818 ft 349 kts 91°
2026-05-05 00:48 44.87867 -64.82941 9811 ft 350 kts 91°
2026-05-05 00:48 44.87796 -64.79522 9822 ft 350 kts 91°
2026-05-05 00:48 44.87725 -64.76089 9813 ft 350 kts 91°
2026-05-05 00:48 44.87651 -64.72658 9814 ft 350 kts 91°
2026-05-05 00:49 44.87576 -64.69232 9808 ft 350 kts 91°
2026-05-05 00:49 44.87503 -64.65799 9812 ft 350 kts 91°
2026-05-05 00:49 44.87429 -64.62409 9805 ft 350 kts 91°
2026-05-05 00:49 44.87354 -64.58982 9809 ft 350 kts 91°
2026-05-05 00:50 44.87275 -64.55556 9809 ft 350 kts 91°
2026-05-05 00:50 44.87212 -64.52131 9800 ft 350 kts 87°
2026-05-05 00:50 44.87730 -64.48823 9800 ft 345 kts 61°
2026-05-05 00:50 44.89042 -64.46073 9803 ft 336 kts 43°
2026-05-05 00:51 44.90602 -64.43648 9808 ft 333 kts 40°
2026-05-05 00:51 44.92194 -64.41275 9805 ft 332 kts 39°
2026-05-05 00:51 44.93783 -64.38900 9797 ft 333 kts 40°
2026-05-05 00:51 44.95355 -64.36499 9796 ft 333 kts 41°
2026-05-05 00:52 44.96903 -64.34059 9800 ft 333 kts 43°
2026-05-05 00:52 44.98218 -64.31318 9807 ft 342 kts 58°
2026-05-05 00:52 44.99185 -64.28234 9805 ft 345 kts 66°
2026-05-05 00:52 44.99936 -64.25010 9800 ft 346 kts 71°
2026-05-05 00:53 45.00540 -64.21794 9785 ft 345 kts 73°
2026-05-05 00:53 45.01106 -64.18467 9806 ft 346 kts 75°
2026-05-05 00:53 45.01526 -64.15111 9807 ft 347 kts 81°
2026-05-05 00:53 45.01842 -64.11726 9796 ft 348 kts 81°
2026-05-05 00:54 45.02137 -64.08338 9800 ft 347 kts 82°
2026-05-05 00:54 45.02426 -64.04953 9800 ft 347 kts 82°
2026-05-05 00:54 45.02714 -64.01567 9819 ft 347 kts 82°
2026-05-05 00:54 45.03001 -63.98187 9449 ft 346 kts 82°
2026-05-05 00:55 45.03285 -63.94822 9020 ft 344 kts 82°
2026-05-05 00:55 45.03567 -63.91477 8572 ft 342 kts 82°
2026-05-05 00:55 45.03847 -63.88166 8297 ft 333 kts 82°
2026-05-05 00:55 45.04113 -63.84983 8178 ft 319 kts 82°
2026-05-05 00:56 45.04366 -63.81964 8082 ft 308 kts 82°
2026-05-05 00:56 45.04613 -63.78998 7964 ft 299 kts 82°
2026-05-05 00:56 45.04855 -63.76093 7718 ft 297 kts 82°
2026-05-05 00:56 45.05095 -63.73209 7455 ft 295 kts 82°
2026-05-05 00:57 45.05332 -63.70330 7176 ft 294 kts 82°
2026-05-05 00:57 45.05568 -63.67465 6914 ft 292 kts 82°
2026-05-05 00:57 45.05803 -63.64610 6647 ft 291 kts 82°
2026-05-05 00:57 45.06035 -63.61773 6399 ft 290 kts 82°
2026-05-05 00:58 45.06262 -63.58989 6127 ft 289 kts 82°
2026-05-05 00:58 45.06489 -63.56187 5953 ft 283 kts 82°
2026-05-05 00:58 45.06714 -63.53413 5623 ft 285 kts 82°
2026-05-05 00:58 45.06941 -63.50637 5379 ft 283 kts 84°
2026-05-05 00:59 45.06818 -63.47877 5094 ft 281 kts 105°
2026-05-05 00:59 45.06237 -63.45307 4844 ft 277 kts 116°
2026-05-05 00:59 45.05358 -63.42875 4588 ft 271 kts 128°
2026-05-05 00:59 45.04314 -63.40672 4371 ft 267 kts 133°
2026-05-05 01:00 45.03031 -63.39002 4355 ft 238 kts 162°
2026-05-05 01:00 45.01587 -63.38523 4325 ft 193 kts 199°
2026-05-05 01:00 45.00445 -63.39081 4215 ft 162 kts 222°
2026-05-05 01:00 44.99426 -63.39923 3622 ft 182 kts 221°
2026-05-05 01:01 44.98301 -63.40855 2874 ft 184 kts 221°
2026-05-05 01:01 44.97341 -63.41893 2425 ft 162 kts 233°
2026-05-05 01:01 44.96489 -63.42912 2303 ft 162 kts 224°
2026-05-05 01:01 44.95610 -63.43746 2293 ft 148 kts 226°
2026-05-05 01:02 44.94825 -63.44553 2025 ft 132 kts 226°
2026-05-05 01:02 44.94097 -63.45270 1792 ft 126 kts 224°
2026-05-05 01:02 44.93370 -63.45991 1603 ft 128 kts 223°
2026-05-05 01:02 44.92647 -63.46710 1418 ft 125 kts 224°
2026-05-05 01:03 44.91911 -63.47435 1243 ft 135 kts 220°
2026-05-05 01:03 44.91129 -63.48204 977 ft 141 kts 218°
2026-05-05 01:03 44.90346 -63.48989 895 ft 145 kts 221°
2026-05-05 01:03 44.89478 -63.49881 1372 ft 165 kts 220°
2026-05-05 01:04 44.88439 -63.50805 1628 ft 179 kts 219°
2026-05-05 01:04 44.86510 -63.52754 1421 ft 173 kts 229°
2026-05-05 01:04 44.85535 -63.53822 1339 ft 185 kts 216°